[[{"header":{"parameterUnit":"m.s-1","parameterCategory":2,"la1":30.2991,"la2":30.254,"lo1":-89.0895,"lo2":-89.0444,"dy":0.0017,"dx":0.0017,"nx":28,"ny":28,"refTime":"2024-02-17T03:00:00:Z","depth":"0","parameterNumber":2,"parameterNumberName":"U-component_of_CURRENTS"},"data":[0,0,0,0,0,0,0,0,0,0,0,0,0,0,0,0,0,0,0,0,0,0,0,0,0,0,0,0,0,0,0,0,0,0,0,0,0,0,0,0,0,0,0,0,0,0,0,0,0,0,0,0,0,0,0,0,0,0,-0.2219,-0.2219,0,-0.2248,-0.2248,-0.2249,-0.2218,-0.2217,-0.2216,-0.2215,-0.2194,-0.2194,-0.2194,0,0,0,0,0,0,0,0,0,0,0,0,0,-0.2151,-0.2152,-0.2219,-0.2219,-0.222,-0.2248,-0.2248,-0.2249,-0.2219,-0.2217,-0.2216,-0.2215,-0.2194,-0.2194,-0.2194,0,0,0,0,0,0,0,0,0,0,0,0,0,-0.2179,-0.2153,-0.2218,-0.221,-0.2209,-0.2248,-0.2248,-0.2249,-0.2219,-0.2217,-0.2216,-0.2214,-0.2194,-0.2194,-0.2195,-0.2228,0,0,-0.2196,-0.2196,0,0,0,0,0,0,0,0,-0.2177,-0.2181,-0.221,-0.221,-0.221,-0.223,-0.2217,-0.224,-0.2219,-0.2213,-0.2215,-0.2214,-0.2204,-0.2203,-0.221,-0.2227,-0.2226,-0.2196,-0.2197,-0.2197,-0.2197,0,0,0,0,0,0,0,-0.2175,-0.218,-0.2228,-0.2211,-0.2211,-0.221,-0.2211,-0.2221,-0.2214,-0.2214,-0.2212,-0.2219,-0.2202,-0.221,-0.2209,-0.2226,-0.2196,-0.2197,-0.2197,-0.2197,-0.2262,-0.2263,0,0,0,0,0,0,-0.2177,-0.2178,-0.2227,-0.2229,-0.2192,-0.2212,-0.2214,-0.2223,-0.2215,-0.2213,-0.222,-0.2217,-0.2209,-0.2209,-0.2208,-0.2235,-0.2197,-0.2197,-0.2198,-0.226,-0.2262,-0.2264,0,0,0,0,0,0,-0.2175,-0.2181,-0.2226,-0.2206,-0.2211,-0.2215,-0.2226,-0.2225,-0.2225,-0.2221,-0.2217,-0.222,-0.2208,-0.2207,-0.2219,-0.2234,-0.2198,-0.2198,-0.2259,-0.2261,-0.2263,-0.2296,0,0,0,0,0,0,-0.2173,-0.218,-0.2182,-0.2206,-0.2213,-0.225,-0.2227,-0.2227,-0.2233,-0.2229,-0.222,-0.2217,-0.2207,-0.2218,-0.2219,-0.2234,-0.2198,-0.2257,-0.226,-0.2262,-0.2293,-0.2299,-0.2304,0,0,0,0,0,-0.2171,-0.2182,-0.2182,-0.2188,-0.2217,-0.2251,-0.2254,-0.225,-0.2234,-0.2242,-0.2236,-0.2217,-0.2235,-0.222,-0.2221,-0.2236,-0.2256,-0.2259,-0.2262,-0.2291,-0.2298,-0.2304,0,0,0,0,0,0,-0.2151,-0.2181,-0.2182,-0.22,-0.2224,-0.2246,-0.225,-0.2253,-0.2257,-0.2245,-0.2235,-0.2233,-0.2248,-0.2245,-0.2228,-0.2265,-0.2243,-0.2246,-0.2265,-0.2271,-0.2277,-0.2269,-0.2199,0,0,0,0,0,-0.2151,-0.2165,-0.2196,-0.221,-0.2221,-0.2236,-0.2246,-0.2249,-0.2259,-0.2258,-0.2256,-0.2256,-0.2266,-0.2268,-0.2274,-0.2298,-0.2286,-0.231,-0.2315,-0.232,-0.2316,-0.232,-0.2324,-0.2274,-0.2274,-0.2274,0,0,-0.2145,-0.2165,-0.2171,-0.2206,-0.2219,-0.2248,-0.2238,-0.2256,-0.2277,-0.2257,-0.2274,-0.2273,-0.2277,-0.2299,-0.2306,-0.2295,-0.2331,-0.2324,-0.2327,-0.2321,-0.2323,-0.2328,-0.2332,-0.2276,-0.2276,-0.2275,0,0,-0.2152,-0.2161,-0.2178,-0.2204,-0.2232,-0.2248,-0.2255,-0.2281,-0.2286,-0.2313,-0.2302,-0.2313,-0.2329,-0.2337,-0.2343,-0.2386,-0.2358,-0.2387,-0.2408,-0.2412,-0.2416,-0.2419,-0.2416,-0.2418,-0.2391,-0.2391,-0.2391,0,-0.2142,-0.217,-0.2188,-0.2218,-0.2237,-0.2251,-0.2277,-0.2297,-0.2323,-0.2333,-0.232,-0.2349,-0.235,-0.238,-0.2392,-0.2397,-0.2387,-0.238,-0.2417,-0.242,-0.2423,-0.2418,-0.2421,-0.2393,-0.2393,-0.2393,-0.2393,0,-0.2168,-0.219,-0.2203,-0.2243,-0.227,-0.2292,-0.2328,-0.2347,-0.2352,-0.2371,-0.2396,-0.2401,-0.2414,-0.2424,-0.2419,-0.2444,-0.2428,-0.2421,-0.2395,-0.2429,-0.2423,-0.2425,-0.2396,-0.2395,-0.2395,-0.2394,0,0,-0.2136,-0.2206,-0.2207,-0.223,-0.2281,-0.2305,-0.2346,-0.2386,-0.2407,-0.2427,-0.2453,-0.2475,-0.2465,-0.2472,-0.2469,-0.2476,-0.2489,-0.2453,-0.2453,-0.244,-0.2488,-0.2384,-0.2376,-0.2481,-0.2481,-0.2482,-0.2478,0,-0.2142,-0.2195,-0.2232,-0.2278,-0.2304,-0.234,-0.2381,-0.242,-0.2443,-0.2474,-0.2484,-0.2505,-0.2489,-0.2491,-0.2496,-0.2492,-0.2493,-0.249,-0.2465,-0.2464,-0.2359,-0.2374,-0.2245,-0.2222,-0.2479,-0.2479,-0.2479,0,-0.2145,-0.2181,-0.2225,-0.2294,-0.2309,-0.234,-0.2392,-0.2432,-0.2484,-0.2503,-0.2522,-0.253,-0.2549,-0.2526,-0.2528,-0.2522,-0.2503,-0.2497,-0.2497,-0.2385,-0.2362,-0.223,-0.2214,-0.2174,-0.2481,-0.2481,-0.2481,0,-0.2097,-0.2172,-0.2201,-0.2225,-0.2307,-0.2328,-0.2365,-0.2426,-0.2458,-0.2509,-0.2526,-0.2556,-0.2555,-0.2552,-0.2527,-0.253,-0.2517,-0.2523,-0.2414,-0.2407,-0.2284,-0.2264,-0.2213,-0.2517,-0.2517,-0.2517,-0.2517,0,-0.2079,-0.21,-0.2179,-0.2192,-0.2229,-0.2297,-0.2335,-0.2381,-0.2443,-0.2467,-0.252,-0.2531,-0.2556,-0.255,-0.2537,-0.2465,-0.2521,-0.2411,-0.2395,-0.2292,-0.2274,-0.2221,-0.2243,-0.2517,-0.2517,-0.2517,-0.2517,0,-0.2009,-0.2065,-0.2102,-0.2182,-0.2203,-0.2222,-0.2303,-0.2322,-0.2398,-0.2426,-0.2439,-0.2506,-0.2498,-0.2508,-0.2503,-0.2452,-0.2359,-0.2378,-0.2247,-0.2215,-0.2062,-0.2091,-0.2037,-0.1981,-0.2265,-0.2262,-0.226,0,-0.1976,-0.1986,-0.2065,-0.2073,-0.2099,-0.2145,-0.2162,-0.2269,-0.2292,-0.2394,-0.2388,-0.2422,-0.2414,-0.2375,-0.2304,-0.2253,-0.2259,-0.2096,-0.2074,-0.2022,-0.2047,-0.2077,-0.2038,-0.1938,-0.1933,-0.193,-0.1927,0,-0.1891,-0.1918,-0.1938,-0.1969,-0.1986,-0.2026,-0.2066,-0.2093,-0.22,-0.2241,-0.2281,-0.2297,-0.2261,-0.2143,-0.2067,-0.2029,-0.2018,-0.2012,-0.1997,-0.1808,-0.1802,-0.1749,-0.1983,-0.1892,-0.1896,-0.1898,-0.19,-0.1901,-0.1799,-0.1797,-0.1824,-0.1838,-0.1862,-0.1879,-0.1867,-0.1926,-0.1967,-0.1989,-0.2089,-0.206,-0.198,-0.1857,-0.1808,-0.1659,-0.1769,-0.1601,-0.1651,-0.1695,-0.1602,-0.1746,-0.1611,-0.1613,-0.1614,-0.1616,-0.1617,0,-0.168,-0.1685,-0.1689,-0.1705,-0.1676,-0.1742,-0.1767,-0.1735,-0.1724,-0.1779,-0.1785,-0.1726,-0.1584,-0.1545,-0.1402,-0.1316,-0.1308,-0.1298,-0.1325,-0.131,-0.1452,-0.1394,-0.1156,-0.1156,-0.1156,-0.1156,-0.1156,-0.1156,-0.1613,-0.1573,-0.1583,-0.1506,-0.1508,-0.144,-0.1426,-0.1403,-0.1418,-0.1389,-0.1389,-0.1421,-0.1403,-0.1377,-0.1223,-0.1151,-0.1143,-0.1091,-0.1156,-0.1267,-0.13,-0.1332,-0.1279,-0.1021,-0.1021,-0.0938,-0.0937,-0.0937]},{"header":{"parameterUnit":"m.s-1","parameterCategory":2,"la1":30.2991,"la2":30.254,"lo1":-89.0895,"lo2":-89.0444,"dy":0.0017,"dx":0.0017,"nx":28,"ny":28,"refTime":"2024-02-17T03:00:00:Z","depth":"0","parameterNumber":3,"parameterNumberName":"V-component_of_CURRENTS"},"data":[0,0,0,0,0,0,0,0,0,0,0,0,0,0,0,0,0,0,0,0,0,0,0,0,0,0,0,0,0,0,0,0,0,0,0,0,0,0,0,0,0,0,0,0,0,0,0,0,0,0,0,0,0,0,0,0,0,0,-0.0385,-0.0384,0,-0.0306,-0.0305,-0.0305,-0.0255,-0.0255,-0.0255,-0.0254,-0.0154,-0.0151,-0.0149,0,0,0,0,0,0,0,0,0,0,0,0,0,-0.0452,-0.0451,-0.0385,-0.0384,-0.0383,-0.0306,-0.0305,-0.0304,-0.0255,-0.0255,-0.0255,-0.0254,-0.0154,-0.0152,-0.0149,0,0,0,0,0,0,0,0,0,0,0,0,0,-0.0403,-0.0451,-0.0385,-0.0349,-0.0345,-0.0307,-0.0305,-0.0304,-0.0255,-0.0255,-0.0255,-0.0254,-0.0155,-0.0152,-0.0148,-0.0135,0,0,-0.0137,-0.0136,0,0,0,0,0,0,0,0,-0.0406,-0.0401,-0.0356,-0.0352,-0.0347,-0.029,-0.0292,-0.0246,-0.0256,-0.029,-0.0254,-0.0254,-0.0197,-0.019,-0.0177,-0.013,-0.0126,-0.0137,-0.0135,-0.0133,-0.0132,0,0,0,0,0,0,0,-0.041,-0.0404,-0.0354,-0.0354,-0.0349,-0.0323,-0.0316,-0.0283,-0.0247,-0.0287,-0.0283,-0.0274,-0.0195,-0.0181,-0.0174,-0.0124,-0.0137,-0.0134,-0.0132,-0.013,-0.005,-0.005,0,0,0,0,0,0,-0.0421,-0.0407,-0.0357,-0.0352,-0.0376,-0.0322,-0.0314,-0.0309,-0.0248,-0.0238,-0.0274,-0.0272,-0.0187,-0.0179,-0.0171,-0.015,-0.0133,-0.013,-0.0128,-0.005,-0.005,-0.005,0,0,0,0,0,0,-0.0423,-0.0418,-0.036,-0.0377,-0.0368,-0.0322,-0.0316,-0.0308,-0.0293,-0.0238,-0.0228,-0.0268,-0.0186,-0.0176,-0.0141,-0.0146,-0.0128,-0.0125,-0.005,-0.005,-0.005,-0.011,0,0,0,0,0,0,-0.0426,-0.0419,-0.0422,-0.0378,-0.0367,-0.0342,-0.0316,-0.0306,-0.0288,-0.0284,-0.0229,-0.022,-0.0185,-0.0147,-0.0137,-0.0141,-0.0122,-0.005,-0.005,-0.005,-0.0108,-0.0112,-0.0116,0,0,0,0,0,-0.0428,-0.0432,-0.0423,-0.0416,-0.0372,-0.0342,-0.0334,-0.03,-0.0288,-0.0285,-0.0246,-0.0221,-0.0141,-0.0144,-0.0133,-0.0135,-0.005,-0.005,-0.005,-0.0107,-0.0112,-0.0116,0,0,0,0,0,0,-0.046,-0.0426,-0.0415,-0.0408,-0.0381,-0.0334,-0.0328,-0.0305,-0.0272,-0.027,-0.022,-0.0207,-0.018,-0.0149,-0.0153,-0.0112,-0.0092,-0.009,-0.0139,-0.0143,-0.0147,-0.0158,-0.0119,0,0,0,0,0,-0.047,-0.0466,-0.0428,-0.0424,-0.0414,-0.0374,-0.0358,-0.0336,-0.03,-0.0285,-0.0246,-0.0206,-0.0172,-0.0151,-0.0117,-0.0093,-0.006,-0.0088,-0.0092,-0.0095,-0.0096,-0.0054,-0.0055,-0.0051,-0.0051,-0.0051,0,0,-0.048,-0.0462,-0.0459,-0.0431,-0.0408,-0.0403,-0.0364,-0.0345,-0.0336,-0.028,-0.0257,-0.0219,-0.0169,-0.0143,-0.0128,-0.0117,-0.0078,-0.0095,-0.0099,-0.0098,-0.0054,-0.0055,-0.0055,-0.0051,-0.0051,-0.0051,0,0,-0.0503,-0.0485,-0.0494,-0.0476,-0.0448,-0.0425,-0.0423,-0.0381,-0.0358,-0.033,-0.0289,-0.0254,-0.0202,-0.0166,-0.0142,-0.0146,-0.0102,-0.0136,-0.0162,-0.0121,-0.0121,-0.0121,-0.008,-0.0076,-0.0136,-0.0136,-0.0136,0,-0.0519,-0.0524,-0.049,-0.0494,-0.0486,-0.0441,-0.0449,-0.0419,-0.0369,-0.0351,-0.0332,-0.0253,-0.0213,-0.0176,-0.0176,-0.0155,-0.0124,-0.0151,-0.0127,-0.0126,-0.0125,-0.0083,-0.0077,-0.0139,-0.0139,-0.0139,-0.0138,0,-0.0549,-0.0553,-0.0556,-0.0551,-0.0537,-0.0535,-0.0494,-0.0478,-0.0447,-0.0408,-0.0363,-0.0303,-0.0256,-0.0238,-0.0206,-0.0178,-0.0156,-0.014,-0.0119,-0.0129,-0.0084,-0.0077,-0.0143,-0.0142,-0.0142,-0.0141,0,0,-0.0582,-0.0581,-0.0582,-0.0596,-0.0568,-0.0564,-0.0551,-0.0523,-0.0517,-0.0454,-0.0431,-0.0364,-0.0323,-0.0292,-0.0245,-0.0206,-0.0169,-0.0173,-0.0169,-0.0139,-0.0077,-0.0038,-0.0026,-0.015,-0.0149,-0.0148,-0.005,0,-0.0619,-0.0651,-0.0631,-0.0661,-0.0677,-0.0637,-0.063,-0.0595,-0.0554,-0.0518,-0.0436,-0.0394,-0.0344,-0.0322,-0.0275,-0.0194,-0.0153,-0.0197,-0.0066,-0.0062,-0.0031,-0.0017,0.0002,0.0092,-0.0043,-0.0042,-0.0041,0,-0.0655,-0.0674,-0.0712,-0.0728,-0.073,-0.0735,-0.0726,-0.0709,-0.064,-0.0601,-0.0537,-0.0469,-0.0389,-0.0353,-0.0217,-0.0247,-0.017,-0.0106,-0.0101,-0.0038,-0.0009,0.0082,0.0111,0.0235,-0.003,-0.0031,-0.0031,0,-0.0706,-0.073,-0.0768,-0.0771,-0.0777,-0.0784,-0.0779,-0.0734,-0.0721,-0.0646,-0.0624,-0.0517,-0.0461,-0.0351,-0.021,-0.0213,-0.0061,-0.0049,0.0059,0.0063,0.0119,0.0127,0.0279,0.0038,0.0038,0.0038,0.0037,0,-0.0755,-0.0784,-0.0798,-0.082,-0.0867,-0.0837,-0.0862,-0.0839,-0.0791,-0.0774,-0.0667,-0.0628,-0.0458,-0.0346,-0.0224,-0.0053,-0.0067,0.0062,0.0094,0.0099,0.0103,0.0246,0.0294,0.0041,0.0041,0.004,0.0039,0,-0.0805,-0.081,-0.0862,-0.0884,-0.0895,-0.0924,-0.0928,-0.0937,-0.088,-0.0854,-0.0829,-0.07,-0.054,-0.0367,-0.0179,-0.007,0.0169,0.0144,0.0141,0.0171,0.0385,0.0427,0.0603,0.0685,0.0282,0.0284,0.0285,0,-0.0833,-0.0864,-0.0919,-0.0954,-0.0967,-0.1,-0.1021,-0.0986,-0.0984,-0.0898,-0.0887,-0.073,-0.0605,-0.0305,-0.0078,0.0159,0.025,0.0297,0.0295,0.0411,0.0482,0.0503,0.056,0.0348,0.035,0.0351,0.0352,0,-0.0888,-0.0906,-0.0949,-0.1028,-0.1067,-0.1113,-0.1131,-0.1143,-0.1086,-0.1041,-0.0954,-0.0844,-0.0535,-0.0246,0.0066,0.02,0.0393,0.0333,0.0459,0.0555,0.0583,0.0671,0.0267,0.0365,0.0364,0.0363,0.0362,0.0362,-0.092,-0.097,-0.1027,-0.1099,-0.1151,-0.1205,-0.1232,-0.1227,-0.1211,-0.1116,-0.1012,-0.0808,-0.0396,0.0061,0.0227,0.0562,0.0528,0.0644,0.0689,0.0702,0.0777,0.0402,0.0528,0.0528,0.0528,0.0527,0.0527,0,-0.0958,-0.1015,-0.1092,-0.1177,-0.1244,-0.1253,-0.129,-0.1284,-0.1257,-0.1122,-0.0998,-0.0542,-0.0136,0.0253,0.0731,0.0905,0.0941,0.0976,0.1014,0.1059,0.0739,0.0738,0.0909,0.0909,0.0909,0.0909,0.0908,0.0908,-0.0977,-0.1062,-0.1109,-0.1232,-0.1287,-0.1347,-0.1361,-0.1332,-0.1238,-0.0988,-0.0721,-0.0511,0.005,0.0771,0.1195,0.1225,0.1376,0.1343,0.1437,0.1213,0.1185,0.1158,0.117,0.1429,0.1429,0.1739,0.1742,0.1744]}],[{"header":{"parameterUnit":"m.s-1","parameterCategory":2,"la1":30.2991,"la2":30.254,"lo1":-89.0895,"lo2":-89.0444,"dy":0.0017,"dx":0.0017,"nx":28,"ny":28,"refTime":"2024-02-17T03:00:00:Z","depth":"2","parameterNumber":2,"parameterNumberName":"U-component_of_CURRENTS"},"data":[0,0,0,0,0,0,0,0,0,0,0,0,0,0,0,0,0,0,0,0,0,0,0,0,0,0,0,0,0,0,0,0,0,0,0,0,0,0,0,0,0,0,0,0,0,0,0,0,0,0,0,0,0,0,0,0,0,0,-0.2007,-0.2007,0,-0.204,-0.204,-0.204,-0.2022,-0.2021,-0.202,-0.2019,-0.2009,-0.2009,-0.201,0,0,0,0,0,0,0,0,0,0,0,0,0,-0.1943,-0.1944,-0.2007,-0.2007,-0.2008,-0.204,-0.204,-0.204,-0.2022,-0.2021,-0.202,-0.2019,-0.2009,-0.2009,-0.201,0,0,0,0,0,0,0,0,0,0,0,0,0,-0.1971,-0.1944,-0.2007,-0.2004,-0.2004,-0.2039,-0.204,-0.204,-0.2022,-0.2021,-0.202,-0.2019,-0.2008,-0.2009,-0.201,-0.2036,0,0,-0.2012,-0.2012,0,0,0,0,0,0,0,0,-0.1969,-0.1973,-0.2004,-0.2004,-0.2004,-0.2027,-0.2014,-0.2037,-0.2022,-0.2013,-0.2019,-0.2018,-0.2013,-0.2013,-0.202,-0.2036,-0.2035,-0.2012,-0.2012,-0.2012,-0.2012,0,0,0,0,0,0,0,-0.1967,-0.1972,-0.2018,-0.2004,-0.2005,-0.2006,-0.2008,-0.2018,-0.2017,-0.2014,-0.2013,-0.202,-0.2012,-0.2019,-0.2019,-0.2035,-0.2012,-0.2012,-0.2013,-0.2013,-0.2078,-0.208,0,0,0,0,0,0,-0.1968,-0.197,-0.2017,-0.2019,-0.1986,-0.2008,-0.2011,-0.2019,-0.2018,-0.2017,-0.2021,-0.2019,-0.2019,-0.2019,-0.2019,-0.2052,-0.2012,-0.2013,-0.2013,-0.2077,-0.2079,-0.208,0,0,0,0,0,0,-0.1966,-0.1972,-0.2016,-0.1996,-0.2002,-0.2011,-0.202,-0.2021,-0.2025,-0.2024,-0.2022,-0.2025,-0.2018,-0.2018,-0.2033,-0.2051,-0.2013,-0.2014,-0.2075,-0.2078,-0.2079,-0.2116,0,0,0,0,0,0,-0.1964,-0.1971,-0.1974,-0.1997,-0.2003,-0.2039,-0.2022,-0.2022,-0.2032,-0.203,-0.2027,-0.2025,-0.2017,-0.2032,-0.2034,-0.2051,-0.2014,-0.2074,-0.2076,-0.2079,-0.2113,-0.2119,-0.2125,0,0,0,0,0,-0.1962,-0.1971,-0.1974,-0.1979,-0.2008,-0.204,-0.2043,-0.2044,-0.2034,-0.2042,-0.2042,-0.2025,-0.2049,-0.2034,-0.2035,-0.2053,-0.2072,-0.2076,-0.2079,-0.2111,-0.2118,-0.2124,0,0,0,0,0,0,-0.1943,-0.1972,-0.1974,-0.1991,-0.2015,-0.2037,-0.2043,-0.2048,-0.2056,-0.2048,-0.2042,-0.2042,-0.2061,-0.2058,-0.2041,-0.2082,-0.2059,-0.2062,-0.2083,-0.209,-0.2095,-0.2088,-0.2015,0,0,0,0,0,-0.1943,-0.1956,-0.1986,-0.1999,-0.201,-0.2028,-0.2038,-0.2044,-0.2057,-0.2058,-0.2061,-0.2065,-0.2078,-0.2082,-0.209,-0.2114,-0.2103,-0.2128,-0.2133,-0.2138,-0.2135,-0.2141,-0.2146,-0.209,-0.209,-0.209,0,0,-0.1938,-0.1956,-0.1962,-0.1996,-0.2009,-0.2037,-0.2031,-0.205,-0.2074,-0.2057,-0.2081,-0.2083,-0.2089,-0.2113,-0.2122,-0.2111,-0.215,-0.2142,-0.2146,-0.214,-0.2144,-0.2149,-0.2154,-0.2092,-0.2092,-0.2092,0,0,-0.1943,-0.1953,-0.1968,-0.1993,-0.2022,-0.2039,-0.2047,-0.2076,-0.2084,-0.2115,-0.2108,-0.2123,-0.2143,-0.2153,-0.216,-0.2204,-0.2178,-0.2207,-0.2229,-0.2236,-0.224,-0.2243,-0.2239,-0.2241,-0.2211,-0.2211,-0.2211,0,-0.1935,-0.196,-0.1978,-0.2006,-0.2026,-0.2043,-0.2069,-0.2091,-0.2121,-0.2134,-0.2125,-0.2162,-0.2164,-0.2198,-0.2211,-0.2216,-0.2207,-0.2201,-0.2241,-0.2244,-0.2247,-0.2242,-0.2244,-0.2213,-0.2213,-0.2212,-0.2212,0,-0.1956,-0.1978,-0.199,-0.203,-0.2058,-0.208,-0.2118,-0.2141,-0.2153,-0.2174,-0.2205,-0.2214,-0.2231,-0.2243,-0.2239,-0.2268,-0.2252,-0.2245,-0.2219,-0.2255,-0.2247,-0.2249,-0.2216,-0.2215,-0.2215,-0.2214,0,0,-0.1925,-0.1991,-0.1993,-0.2018,-0.207,-0.2094,-0.2138,-0.2181,-0.2206,-0.2232,-0.2262,-0.2289,-0.2284,-0.2292,-0.2292,-0.2301,-0.2318,-0.2281,-0.228,-0.2268,-0.2321,-0.222,-0.2212,-0.2313,-0.2314,-0.2314,-0.2308,0,-0.1931,-0.1981,-0.2017,-0.2064,-0.209,-0.213,-0.2173,-0.2215,-0.2244,-0.2279,-0.2294,-0.232,-0.2308,-0.2313,-0.2322,-0.2321,-0.2324,-0.2319,-0.2295,-0.2295,-0.2193,-0.2211,-0.2033,-0.2004,-0.2309,-0.2309,-0.231,0,-0.1931,-0.1967,-0.2011,-0.2082,-0.2097,-0.2131,-0.219,-0.2231,-0.2288,-0.2311,-0.2335,-0.2347,-0.237,-0.235,-0.2358,-0.2353,-0.2336,-0.2331,-0.233,-0.2221,-0.2197,-0.2019,-0.1996,-0.2312,-0.2312,-0.2312,-0.2312,0,-0.1887,-0.196,-0.1992,-0.2016,-0.2099,-0.2125,-0.2165,-0.223,-0.2263,-0.2321,-0.234,-0.2375,-0.2379,-0.238,-0.2359,-0.2362,-0.2353,-0.2359,-0.2253,-0.2246,-0.2081,-0.2057,-0.2356,-0.2356,-0.2356,-0.2356,-0.2356,0,-0.1869,-0.1893,-0.1972,-0.1989,-0.203,-0.2098,-0.2142,-0.2191,-0.2256,-0.2281,-0.2338,-0.2351,-0.2382,-0.2379,-0.2368,-0.2302,-0.2357,-0.2251,-0.2235,-0.2089,-0.2067,-0.2323,-0.232,-0.2355,-0.2355,-0.2356,-0.2356,0,-0.1806,-0.1861,-0.19,-0.1983,-0.2007,-0.2031,-0.2115,-0.2137,-0.2215,-0.2246,-0.2261,-0.2329,-0.2324,-0.2338,-0.2337,-0.229,-0.226,-0.222,-0.2039,-0.2001,-0.2151,-0.215,-0.2116,-0.2112,-0.2109,-0.2107,-0.2105,0,-0.1776,-0.1788,-0.1869,-0.1881,-0.1912,-0.1963,-0.1985,-0.209,-0.2115,-0.2214,-0.2209,-0.2245,-0.2232,-0.22,-0.2136,-0.2088,-0.2174,-0.1891,-0.1863,-0.2137,-0.2126,-0.213,-0.2133,-0.1668,-0.1663,-0.1658,-0.1655,0,-0.1703,-0.173,-0.1755,-0.1789,-0.1812,-0.1853,-0.1898,-0.1922,-0.2026,-0.2062,-0.2095,-0.2104,-0.2071,-0.1933,-0.1867,-0.1824,-0.1889,-0.1795,-0.2125,-0.1751,-0.1712,-0.1703,-0.1721,-0.1614,-0.1618,-0.1621,-0.1623,-0.1625,-0.1625,-0.1626,-0.1656,-0.1674,-0.1703,-0.1719,-0.1707,-0.1761,-0.1794,-0.1807,-0.1898,-0.1841,-0.182,-0.1628,-0.1543,-0.1482,-0.1626,-0.1551,-0.1566,-0.1586,-0.153,-0.1487,-0.1336,-0.1338,-0.134,-0.1342,-0.1344,0,-0.1523,-0.153,-0.1538,-0.1556,-0.1533,-0.1597,-0.1618,-0.1582,-0.1559,-0.1591,-0.1586,-0.1416,-0.1307,-0.1312,-0.1142,-0.1104,-0.1116,-0.1066,-0.1075,-0.1115,-0.1151,-0.1074,-0.0758,-0.0757,-0.0755,-0.0754,0,0,-0.1467,-0.1434,-0.1441,-0.1376,-0.1381,-0.1319,-0.1303,-0.1267,-0.1263,-0.1207,-0.1167,-0.1226,-0.1261,-0.0999,-0.0937,-0.082,-0.0967,-0.0782,-0.1249,-0.1299,-0.1333,-0.1423,-0.1348,0,0,0,0,0]},{"header":{"parameterUnit":"m.s-1","parameterCategory":2,"la1":30.2991,"la2":30.254,"lo1":-89.0895,"lo2":-89.0444,"dy":0.0017,"dx":0.0017,"nx":28,"ny":28,"refTime":"2024-02-17T03:00:00:Z","depth":"2","parameterNumber":3,"parameterNumberName":"V-component_of_CURRENTS"},"data":[0,0,0,0,0,0,0,0,0,0,0,0,0,0,0,0,0,0,0,0,0,0,0,0,0,0,0,0,0,0,0,0,0,0,0,0,0,0,0,0,0,0,0,0,0,0,0,0,0,0,0,0,0,0,0,0,0,0,-0.0197,-0.0196,0,-0.0131,-0.013,-0.0129,-0.0084,-0.0084,-0.0084,-0.0083,0.0008,0.0011,0.0013,0,0,0,0,0,0,0,0,0,0,0,0,0,-0.0245,-0.0245,-0.0197,-0.0196,-0.0196,-0.0131,-0.013,-0.0129,-0.0084,-0.0084,-0.0084,-0.0083,0.0008,0.001,0.0013,0,0,0,0,0,0,0,0,0,0,0,0,0,-0.0206,-0.0245,-0.0197,-0.0165,-0.0162,-0.0131,-0.013,-0.0129,-0.0085,-0.0084,-0.0084,-0.0083,0.0007,0.001,0.0013,0.0023,0,0,0.0023,0.0024,0,0,0,0,0,0,0,0,-0.0209,-0.0205,-0.0171,-0.0168,-0.0164,-0.0115,-0.0113,-0.0077,-0.0085,-0.0114,-0.0083,-0.0083,-0.0031,-0.0024,-0.0014,0.0028,0.0031,0.0023,0.0025,0.0027,0.0028,0,0,0,0,0,0,0,-0.0212,-0.0207,-0.0171,-0.017,-0.0166,-0.014,-0.0135,-0.0106,-0.0076,-0.0111,-0.0108,-0.0101,-0.0029,-0.0017,-0.0011,0.0033,0.0023,0.0026,0.0028,0.0029,0.0096,0.0095,0,0,0,0,0,0,-0.0222,-0.021,-0.0173,-0.0169,-0.0185,-0.014,-0.0134,-0.0131,-0.0076,-0.0068,-0.0101,-0.0099,-0.0023,-0.0015,-0.0008,0.0007,0.0027,0.003,0.0031,0.0096,0.0096,0.0095,0,0,0,0,0,0,-0.0224,-0.022,-0.0176,-0.0187,-0.018,-0.014,-0.0137,-0.013,-0.0119,-0.0069,-0.0059,-0.0097,-0.0022,-0.0012,0.0017,0.0011,0.0031,0.0034,0.0096,0.0096,0.0095,0.0036,0,0,0,0,0,0,-0.0225,-0.0221,-0.0225,-0.0189,-0.018,-0.0164,-0.0138,-0.0129,-0.0115,-0.0111,-0.0062,-0.0053,-0.0021,0.0012,0.002,0.0016,0.0037,0.0096,0.0096,0.0096,0.0038,0.0034,0.003,0,0,0,0,0,-0.0227,-0.0235,-0.0226,-0.0221,-0.0187,-0.0164,-0.0158,-0.0127,-0.0115,-0.0114,-0.0079,-0.0055,0.0016,0.0014,0.0024,0.002,0.0096,0.0096,0.0096,0.004,0.0035,0.003,0,0,0,0,0,0,-0.0256,-0.023,-0.0219,-0.0218,-0.0196,-0.0157,-0.0154,-0.0133,-0.0105,-0.0103,-0.0055,-0.0044,-0.0022,0.0007,0.0005,0.0039,0.006,0.0061,0.0014,0.0009,0.0005,-0.0003,0.0039,0,0,0,0,0,-0.0266,-0.0266,-0.0235,-0.0235,-0.0228,-0.0193,-0.0181,-0.0162,-0.0131,-0.0118,-0.0083,-0.0046,-0.0016,0.0002,0.0033,0.0052,0.0085,0.0056,0.0052,0.0048,0.0048,0.009,0.009,0.0094,0.0094,0.0094,0,0,-0.0276,-0.0263,-0.0262,-0.0242,-0.0223,-0.0222,-0.0185,-0.0173,-0.0167,-0.0113,-0.0096,-0.0061,-0.0015,0.0007,0.0019,0.0031,0.0064,0.0048,0.0044,0.0046,0.009,0.0089,0.0089,0.0094,0.0094,0.0094,0,0,-0.0302,-0.0287,-0.03,-0.0286,-0.0265,-0.0245,-0.0245,-0.0211,-0.019,-0.0169,-0.013,-0.0098,-0.0053,-0.0019,0.0003,-0.0005,0.0039,0.0003,-0.0021,0.0019,0.0019,0.0019,0.0056,0.0061,0.0003,0.0003,0.0003,0,-0.0317,-0.0327,-0.0299,-0.0306,-0.0301,-0.0261,-0.0273,-0.0247,-0.0206,-0.0189,-0.0173,-0.0101,-0.0065,-0.0031,-0.0033,-0.0014,0.0016,-0.0009,0.0013,0.0014,0.0016,0.0054,0.0059,0.0,0.0001,0.0001,0.0001,0,-0.0351,-0.0359,-0.0365,-0.0365,-0.0355,-0.0357,-0.0322,-0.031,-0.0283,-0.0248,-0.0208,-0.0153,-0.0109,-0.0094,-0.0065,-0.0037,-0.0017,-0.0,0.0023,0.0011,0.0053,0.0059,-0.0004,-0.0003,-0.0002,-0.0001,0,0,-0.0385,-0.0391,-0.0392,-0.0407,-0.0387,-0.0385,-0.0377,-0.0354,-0.0348,-0.0294,-0.0273,-0.0213,-0.0174,-0.0146,-0.0101,-0.0064,-0.003,-0.0032,-0.0029,-0.0,0.0059,0.0086,0.0097,-0.0009,-0.0008,-0.0007,0.0082,0,-0.0423,-0.0459,-0.0444,-0.0476,-0.0493,-0.0458,-0.0454,-0.0424,-0.0387,-0.0355,-0.0279,-0.024,-0.0195,-0.0174,-0.0129,-0.0053,-0.0014,-0.0056,0.0071,0.0075,0.0096,0.0105,0.0084,0.0163,0.0089,0.009,0.0091,0,-0.0462,-0.0483,-0.0523,-0.0539,-0.0543,-0.0551,-0.0542,-0.053,-0.0468,-0.0432,-0.0372,-0.0309,-0.0235,-0.0201,-0.0073,-0.0101,-0.0029,0.0031,0.0036,0.0088,0.0115,0.0165,0.0179,0.0103,0.0102,0.0101,0.01,0,-0.0508,-0.0537,-0.0575,-0.0578,-0.0588,-0.0596,-0.0594,-0.0553,-0.0542,-0.0474,-0.0453,-0.0353,-0.03,-0.0197,-0.0067,-0.0069,0.0073,0.0087,0.018,0.0183,0.0205,0.0208,0.0171,0.0171,0.0171,0.017,0.017,0,-0.0554,-0.0584,-0.0601,-0.0624,-0.0669,-0.0645,-0.067,-0.0649,-0.0606,-0.0591,-0.0493,-0.0457,-0.0297,-0.0194,-0.008,0.0075,0.0067,0.0182,0.0211,0.0183,0.0183,0.0162,0.0159,0.0174,0.0173,0.0172,0.0172,0,-0.0599,-0.0608,-0.0658,-0.0684,-0.0695,-0.0724,-0.0731,-0.074,-0.0689,-0.0666,-0.0643,-0.0523,-0.0377,-0.0218,-0.0041,0.0058,0.02,0.0253,0.0209,0.0232,0.0287,0.028,0.0371,0.0373,0.0374,0.0375,0.0376,0,-0.0624,-0.0655,-0.0711,-0.0745,-0.0761,-0.0794,-0.0816,-0.0786,-0.0784,-0.0707,-0.0696,-0.0553,-0.0438,-0.0165,0.0036,0.025,0.0246,0.0341,0.0338,0.0289,0.0309,0.03,0.0292,0.0342,0.0343,0.0344,0.0344,0,-0.0674,-0.0694,-0.0736,-0.0811,-0.0851,-0.0895,-0.0915,-0.0925,-0.0875,-0.0835,-0.0754,-0.0653,-0.038,-0.0136,0.014,0.0255,0.0308,0.036,0.033,0.0291,0.0269,0.0285,0.0277,0.0349,0.0349,0.0348,0.0348,0.0348,-0.0704,-0.0749,-0.0806,-0.0874,-0.0926,-0.0976,-0.1,-0.0994,-0.0979,-0.0888,-0.0799,-0.0613,-0.0383,0.0028,0.0216,0.039,0.0383,0.0428,0.0423,0.0419,0.0395,0.0377,0.0473,0.0473,0.0473,0.0474,0.0474,0,-0.0738,-0.079,-0.0862,-0.0942,-0.1005,-0.1019,-0.1051,-0.1039,-0.1009,-0.0889,-0.0774,-0.0501,-0.0217,0.0028,0.0316,0.0477,0.0455,0.0495,0.044,0.0434,0.0429,0.0404,0.0485,0.0486,0.0487,0.0487,0,0,-0.0755,-0.0832,-0.0874,-0.0986,-0.104,-0.1094,-0.1106,-0.1068,-0.0981,-0.0845,-0.069,-0.0493,-0.0195,0.0011,0.0213,0.0366,0.0353,0.0371,0.0344,0.0249,0.0242,0.0373,0.0326,0,0,0,0,0]}],[{"header":{"parameterUnit":"m.s-1","parameterCategory":2,"la1":30.2991,"la2":30.254,"lo1":-89.0895,"lo2":-89.0444,"dy":0.0017,"dx":0.0017,"nx":28,"ny":28,"refTime":"2024-02-17T03:00:00:Z","depth":"4","parameterNumber":2,"parameterNumberName":"U-component_of_CURRENTS"},"data":[0,0,0,0,0,0,0,0,0,0,0,0,0,0,0,0,0,0,0,0,0,0,0,0,0,0,0,0,0,0,0,0,0,0,0,0,0,0,0,0,0,0,0,0,0,0,0,0,0,0,0,0,0,0,0,0,0,0,-0.1385,-0.1385,0,-0.1444,-0.1445,-0.1446,-0.1479,-0.1479,-0.1479,-0.148,-0.1529,-0.153,-0.1531,0,0,0,0,0,0,0,0,0,0,0,0,0,-0.1306,-0.1307,-0.1385,-0.1385,-0.1386,-0.1444,-0.1445,-0.1446,-0.1479,-0.1479,-0.1479,-0.148,-0.1528,-0.153,-0.1531,0,0,0,0,0,0,0,0,0,0,0,0,0,-0.1349,-0.1307,-0.1384,-0.1411,-0.1414,-0.1444,-0.1445,-0.1446,-0.1479,-0.1479,-0.1479,-0.148,-0.1528,-0.1529,-0.1531,-0.1535,0,0,-0.1536,-0.1537,0,0,0,0,0,0,0,0,-0.1346,-0.1352,-0.1406,-0.1409,-0.1412,-0.1456,-0.1435,-0.1476,-0.1479,-0.1453,-0.148,-0.148,-0.1504,-0.1507,-0.1516,-0.1537,-0.1539,-0.1536,-0.1537,-0.1538,-0.1538,0,0,0,0,0,0,0,-0.1343,-0.1349,-0.1407,-0.1407,-0.1411,-0.1422,-0.1428,-0.1443,-0.1475,-0.1455,-0.1458,-0.1466,-0.1505,-0.1515,-0.1518,-0.154,-0.1536,-0.1538,-0.1539,-0.1539,-0.1637,-0.1639,0,0,0,0,0,0,-0.1338,-0.1347,-0.1405,-0.1409,-0.1381,-0.1423,-0.143,-0.144,-0.1475,-0.1481,-0.1466,-0.1468,-0.1512,-0.1516,-0.152,-0.159,-0.1538,-0.154,-0.154,-0.1635,-0.1637,-0.1639,0,0,0,0,0,0,-0.1336,-0.1343,-0.1403,-0.138,-0.1388,-0.1424,-0.1435,-0.1441,-0.1473,-0.1484,-0.1489,-0.1495,-0.1512,-0.1517,-0.1559,-0.1589,-0.154,-0.1542,-0.1634,-0.1636,-0.1638,-0.1689,0,0,0,0,0,0,-0.1334,-0.1342,-0.1357,-0.138,-0.139,-0.1436,-0.1435,-0.1442,-0.1477,-0.1481,-0.1509,-0.1513,-0.1513,-0.1556,-0.156,-0.1591,-0.1543,-0.1632,-0.1635,-0.1638,-0.1686,-0.1693,-0.17,0,0,0,0,0,-0.1331,-0.1345,-0.1357,-0.1365,-0.1406,-0.1437,-0.1443,-0.1468,-0.1479,-0.1497,-0.1522,-0.1513,-0.1578,-0.1559,-0.1563,-0.1595,-0.163,-0.1634,-0.1637,-0.1682,-0.1692,-0.1699,0,0,0,0,0,0,-0.1319,-0.1351,-0.1364,-0.1389,-0.1419,-0.1443,-0.1464,-0.1482,-0.1516,-0.1524,-0.1533,-0.1539,-0.1585,-0.1586,-0.1564,-0.1633,-0.1603,-0.1608,-0.1636,-0.1645,-0.1652,-0.1642,-0.1544,0,0,0,0,0,-0.1324,-0.1345,-0.1375,-0.1399,-0.1413,-0.1444,-0.1463,-0.1482,-0.1511,-0.1527,-0.1551,-0.1575,-0.16,-0.1619,-0.1637,-0.1675,-0.1662,-0.17,-0.1707,-0.1712,-0.1709,-0.1719,-0.1726,-0.1651,-0.1651,-0.1651,0,0,-0.1327,-0.1347,-0.1361,-0.1398,-0.1422,-0.1454,-0.1457,-0.1493,-0.1528,-0.1526,-0.1586,-0.16,-0.1616,-0.1659,-0.168,-0.1666,-0.1729,-0.1717,-0.1722,-0.1715,-0.1724,-0.1731,-0.1737,-0.1653,-0.1653,-0.1653,0,0,-0.1337,-0.1362,-0.1382,-0.1411,-0.1452,-0.1473,-0.1489,-0.153,-0.1559,-0.1611,-0.162,-0.1656,-0.1699,-0.1716,-0.1728,-0.1785,-0.1763,-0.1796,-0.1828,-0.1839,-0.1845,-0.1849,-0.1844,-0.1847,-0.1803,-0.1803,-0.1803,0,-0.1341,-0.137,-0.1394,-0.1423,-0.1452,-0.1485,-0.1518,-0.1552,-0.1607,-0.1633,-0.1639,-0.1709,-0.1724,-0.1771,-0.1794,-0.1801,-0.1795,-0.1794,-0.1846,-0.1851,-0.1855,-0.1848,-0.1851,-0.1806,-0.1805,-0.1805,-0.1805,0,-0.136,-0.1396,-0.1412,-0.1461,-0.1495,-0.1529,-0.1577,-0.162,-0.1659,-0.169,-0.1752,-0.1776,-0.1813,-0.1831,-0.1832,-0.1876,-0.1859,-0.185,-0.182,-0.1865,-0.1855,-0.1858,-0.181,-0.1809,-0.1808,-0.1807,0,0,-0.1333,-0.1411,-0.1419,-0.1453,-0.1519,-0.1548,-0.1611,-0.1671,-0.1714,-0.1768,-0.1819,-0.1869,-0.1879,-0.1893,-0.1902,-0.1917,-0.1946,-0.1901,-0.19,-0.1886,-0.1959,-0.1807,-0.1795,-0.1947,-0.1948,-0.1948,-0.194,0,-0.1343,-0.1401,-0.1441,-0.1508,-0.1542,-0.1599,-0.1655,-0.1716,-0.1767,-0.1824,-0.1858,-0.1907,-0.1904,-0.1926,-0.1943,-0.1947,-0.1956,-0.1948,-0.1924,-0.1923,-0.1775,-0.1793,-0.1951,-0.1942,-0.1943,-0.1943,-0.1943,0,-0.134,-0.1384,-0.1447,-0.1537,-0.1558,-0.1608,-0.1697,-0.1751,-0.1831,-0.1871,-0.1919,-0.1942,-0.1985,-0.197,-0.1993,-0.1989,-0.1977,-0.1973,-0.1972,-0.181,-0.1775,-0.1888,-0.1948,-0.1947,-0.1947,-0.1947,-0.1947,0,-0.1295,-0.1386,-0.1439,-0.147,-0.1574,-0.1621,-0.1679,-0.1766,-0.1811,-0.1897,-0.1926,-0.1982,-0.2002,-0.2011,-0.1999,-0.2005,-0.2002,-0.2007,-0.1857,-0.1847,-0.1965,-0.1959,-0.2012,-0.2012,-0.2012,-0.2012,-0.2012,0,-0.1273,-0.1319,-0.1429,-0.1458,-0.1527,-0.1608,-0.1681,-0.1746,-0.183,-0.1864,-0.194,-0.1954,-0.2012,-0.2013,-0.2008,-0.1923,-0.2006,-0.1853,-0.1831,-0.1988,-0.1985,-0.1966,-0.1961,-0.2012,-0.2012,-0.2012,-0.2012,0,-0.1208,-0.1283,-0.135,-0.1468,-0.1507,-0.1556,-0.1671,-0.1707,-0.1802,-0.1844,-0.1868,-0.194,-0.1934,-0.196,-0.1967,-0.1903,-0.1863,-0.1812,-0.1966,-0.1955,-0.1705,-0.1703,-0.1652,-0.1646,-0.1642,-0.1638,-0.1635,0,-0.1178,-0.1207,-0.1336,-0.137,-0.1427,-0.1512,-0.1555,-0.1675,-0.1704,-0.1806,-0.1799,-0.1839,-0.1863,-0.1749,-0.1798,-0.1762,-0.174,-0.1708,-0.1715,-0.1682,-0.1667,-0.1672,-0.1677,-0.1627,-0.1626,-0.1625,-0.1623,0,-0.1113,-0.1169,-0.122,-0.1293,-0.1352,-0.1411,-0.1483,-0.1495,-0.1605,-0.1703,-0.1679,-0.1669,-0.165,-0.1646,-0.1615,-0.1596,-0.1728,-0.1659,-0.1669,-0.1676,-0.1652,-0.1642,-0.1652,-0.1607,-0.1609,-0.1611,-0.1612,0,-0.1058,-0.1076,-0.1146,-0.1196,-0.1262,-0.1282,-0.1343,-0.1367,-0.1416,-0.1528,-0.151,-0.1555,-0.1624,-0.1557,-0.1536,-0.1494,-0.148,-0.1436,-0.1458,-0.1476,-0.142,-0.1363,-0.1199,0,0,0,0,0,-0.0998,-0.1003,-0.104,-0.109,-0.1146,-0.1185,-0.1275,-0.1333,-0.1436,-0.1371,-0.1442,-0.1417,-0.138,-0.1411,-0.1331,-0.1458,-0.1489,-0.1358,-0.1451,-0.1517,-0.1536,-0.1484,0,0,0,0,0,0,-0.0958,-0.0989,-0.1002,-0.0982,-0.0989,-0.1041,-0.1091,-0.1165,-0.1146,-0.1251,-0.124,-0.1314,-0.1304,-0.1396,-0.1295,-0.1302,-0.1327,-0.1394,-0.139,-0.1506,-0.1523,-0.1538,-0.1492,0,0,0,0,0]},{"header":{"parameterUnit":"m.s-1","parameterCategory":2,"la1":30.2991,"la2":30.254,"lo1":-89.0895,"lo2":-89.0444,"dy":0.0017,"dx":0.0017,"nx":28,"ny":28,"refTime":"2024-02-17T03:00:00:Z","depth":"4","parameterNumber":3,"parameterNumberName":"V-component_of_CURRENTS"},"data":[0,0,0,0,0,0,0,0,0,0,0,0,0,0,0,0,0,0,0,0,0,0,0,0,0,0,0,0,0,0,0,0,0,0,0,0,0,0,0,0,0,0,0,0,0,0,0,0,0,0,0,0,0,0,0,0,0,0,-0.0111,-0.0111,0,-0.0071,-0.007,-0.007,-0.0037,-0.0036,-0.0036,-0.0036,0.0034,0.0035,0.0037,0,0,0,0,0,0,0,0,0,0,0,0,0,-0.0129,-0.0129,-0.0111,-0.011,-0.011,-0.0071,-0.007,-0.007,-0.0037,-0.0036,-0.0036,-0.0036,0.0033,0.0035,0.0037,0,0,0,0,0,0,0,0,0,0,0,0,0,-0.0109,-0.0129,-0.0111,-0.0089,-0.0087,-0.0071,-0.007,-0.007,-0.0037,-0.0036,-0.0036,-0.0035,0.0033,0.0035,0.0037,0.0041,0,0,0.0044,0.0045,0,0,0,0,0,0,0,0,-0.011,-0.0108,-0.0093,-0.009,-0.0088,-0.0058,-0.0051,-0.0031,-0.0037,-0.0056,-0.0036,-0.0035,0.0005,0.001,0.0016,0.0045,0.0047,0.0044,0.0046,0.0047,0.0048,0,0,0,0,0,0,0,-0.0111,-0.0109,-0.0095,-0.0092,-0.0089,-0.0071,-0.0068,-0.0047,-0.0028,-0.0054,-0.0052,-0.0047,0.0007,0.0014,0.0018,0.0049,0.0044,0.0046,0.0048,0.0049,0.0093,0.0092,0,0,0,0,0,0,-0.0119,-0.0111,-0.0096,-0.0094,-0.0098,-0.0071,-0.0067,-0.0068,-0.0029,-0.0022,-0.0048,-0.0046,0.0009,0.0015,0.0021,0.0028,0.0047,0.0049,0.005,0.0093,0.0093,0.0092,0,0,0,0,0,0,-0.0119,-0.0118,-0.0098,-0.0101,-0.0097,-0.0071,-0.0073,-0.0068,-0.0061,-0.0024,-0.0017,-0.0046,0.001,0.0017,0.0037,0.0031,0.005,0.0052,0.0093,0.0093,0.0093,0.0043,0,0,0,0,0,0,-0.012,-0.0119,-0.0124,-0.0102,-0.0097,-0.0094,-0.0073,-0.0067,-0.0059,-0.0056,-0.002,-0.0013,0.0011,0.0033,0.0039,0.0035,0.0054,0.0093,0.0093,0.0093,0.0045,0.0041,0.0037,0,0,0,0,0,-0.0121,-0.0131,-0.0125,-0.0123,-0.0105,-0.0095,-0.0091,-0.007,-0.006,-0.0061,-0.0035,-0.0015,0.0035,0.0035,0.0042,0.0038,0.0094,0.0093,0.0093,0.0046,0.0042,0.0038,0,0,0,0,0,0,-0.014,-0.0128,-0.012,-0.0126,-0.0114,-0.0089,-0.009,-0.0075,-0.0057,-0.0054,-0.0018,-0.0009,0.0005,0.0028,0.0027,0.005,0.0068,0.0069,0.003,0.0026,0.0022,0.0017,0.0056,0,0,0,0,0,-0.0148,-0.0153,-0.0136,-0.014,-0.0138,-0.0115,-0.0109,-0.0096,-0.0076,-0.0067,-0.0041,-0.0014,0.0008,0.0022,0.0044,0.0056,0.0084,0.0058,0.0054,0.0051,0.0051,0.0089,0.0088,0.0091,0.0091,0.0091,0,0,-0.0156,-0.015,-0.0153,-0.0145,-0.0135,-0.0139,-0.011,-0.0107,-0.0106,-0.0063,-0.0054,-0.0027,0.0008,0.0021,0.003,0.004,0.0064,0.0051,0.0047,0.005,0.0088,0.0088,0.0088,0.009,0.0091,0.0091,0,0,-0.0179,-0.0172,-0.0186,-0.018,-0.017,-0.0159,-0.016,-0.014,-0.0126,-0.0116,-0.0083,-0.006,-0.0029,-0.0002,0.0015,0.0005,0.0042,0.0011,-0.001,0.0026,0.0026,0.0026,0.0056,0.006,0.0011,0.0011,0.0011,0,-0.019,-0.0205,-0.0188,-0.0198,-0.0198,-0.0172,-0.0186,-0.017,-0.0145,-0.0132,-0.0121,-0.0068,-0.004,-0.0014,-0.0018,-0.0004,0.0022,0.0002,0.0021,0.0022,0.0023,0.0054,0.0059,0.0008,0.0009,0.0009,0.0009,0,-0.0222,-0.0233,-0.0241,-0.0249,-0.0246,-0.0253,-0.0232,-0.0227,-0.0209,-0.0185,-0.0156,-0.0114,-0.008,-0.0069,-0.0046,-0.0023,-0.0006,0.001,0.003,0.002,0.0053,0.0059,0.0005,0.0006,0.0006,0.0007,0,0,-0.0247,-0.0263,-0.0265,-0.028,-0.0273,-0.0277,-0.0277,-0.0265,-0.0264,-0.0227,-0.0212,-0.0168,-0.0135,-0.0113,-0.0077,-0.0044,-0.0015,-0.0017,-0.0014,0.001,0.0062,0.0055,0.0061,0.0005,0.0006,0.0006,0.0079,0,-0.0279,-0.0315,-0.031,-0.0343,-0.036,-0.0339,-0.0342,-0.0324,-0.03,-0.0279,-0.0219,-0.0191,-0.0154,-0.0138,-0.0099,-0.0034,-0.0002,-0.0037,0.0072,0.0075,0.0067,0.0067,0.0009,0.0084,0.0085,0.0086,0.0087,0,-0.031,-0.0332,-0.0372,-0.0394,-0.0399,-0.0413,-0.0414,-0.0411,-0.0369,-0.0343,-0.0296,-0.0247,-0.0187,-0.0159,-0.0049,-0.0072,-0.0012,0.0039,0.0043,0.0059,0.0078,0.0099,0.0098,0.0097,0.0096,0.0095,0.0094,0,-0.0339,-0.0374,-0.041,-0.0417,-0.0436,-0.045,-0.0456,-0.0432,-0.0427,-0.0378,-0.0364,-0.0282,-0.0239,-0.0151,-0.0047,-0.0045,0.0071,0.0088,0.0139,0.0139,0.0146,0.0145,0.0159,0.0159,0.0159,0.0159,0.0158,0,-0.0369,-0.04,-0.0431,-0.0451,-0.0497,-0.0487,-0.0517,-0.0506,-0.048,-0.0471,-0.0397,-0.0367,-0.0235,-0.0152,-0.0058,0.0057,0.0065,0.0137,0.0158,0.0123,0.0118,0.015,0.0148,0.0161,0.0161,0.016,0.016,0,-0.0391,-0.0411,-0.0461,-0.0498,-0.0514,-0.0544,-0.0568,-0.0579,-0.0548,-0.0534,-0.0518,-0.0422,-0.0306,-0.018,-0.0031,0.0038,0.0148,0.0184,0.0131,0.0148,0.0197,0.0192,0.0254,0.0254,0.0254,0.0255,0.0255,0,-0.0404,-0.0433,-0.05,-0.0536,-0.0558,-0.0598,-0.0626,-0.0615,-0.0616,-0.0565,-0.0555,-0.0448,-0.037,-0.0164,-0.0035,0.0144,0.0167,0.0215,0.0213,0.0192,0.0207,0.0201,0.0196,0.0255,0.0256,0.0256,0.0256,0,-0.043,-0.0457,-0.0498,-0.0575,-0.0621,-0.0668,-0.0697,-0.0701,-0.0675,-0.0654,-0.057,-0.0456,-0.0326,-0.0161,-0.0025,0.0101,0.018,0.0219,0.022,0.0219,0.0195,0.0208,0.0202,0.0257,0.0257,0.0257,0.0256,0,-0.0445,-0.0482,-0.0541,-0.0604,-0.0668,-0.0711,-0.0726,-0.0713,-0.0706,-0.0636,-0.0611,-0.0463,-0.0373,-0.0184,-0.0061,0.0065,0.0101,0.0132,0.0138,0.0138,0.0082,0.0033,0.0065,0,0,0,0,0,-0.0454,-0.0498,-0.0563,-0.0633,-0.0697,-0.073,-0.0761,-0.076,-0.0737,-0.068,-0.0638,-0.0512,-0.0307,-0.022,-0.0092,-0.0061,0.0111,0.009,0.0147,0.0263,0.0262,0.0214,0,0,0,0,0,0,-0.0461,-0.0525,-0.0562,-0.0642,-0.0689,-0.0751,-0.077,-0.0756,-0.0713,-0.067,-0.0557,-0.0493,-0.0291,-0.0374,-0.0091,-0.0054,-0.0004,0.0189,0.0191,0.0264,0.0262,0.0261,0.0212,0,0,0,0,0]}]]